Weather History for K20V - October, 2012

Change the Weather History Date:

Saturday, October 27, 2012

  Actual Average (KEGE) Record (KEGE)
Temperature  
Mean Temperature 34 °F -  
Max Temperature 44 °F 59 °F 73 °F (1952)
Min Temperature 24 °F 22 °F 10 °F (1976)
Degree Days  
Heating Degree Days 31    
Moisture  
Dew Point 14 °F    
Average Humidity 46    
Maximum Humidity 74    
Minimum Humidity 21    
Precipitation  
Precipitation 0.00 in - - ()
Sea Level Pressure  
Sea Level Pressure 30.19 in    
Wind  
Wind Speed 5 mph (West)    
Max Wind Speed 18 mph    
Max Gust Speed 28 mph    
Visibility 10 miles    
Events      
Averages and records for this station are not official NWS values.
T = Trace of Precipitation, MM = Missing Value Source: NWS Daily Summary

Daily Weather History Graph

Daily Weather History Graph

Search for Another Location

Airport or City:

Trip Planner

Search our weather history database for the weather conditions in past years. The results will help you decide how hot, cold, wet, or windy it might be!

Date:

Astronomy

Oct. 27, 2012 Rise Set
Actual Time 7:29 AM MDT 6:08 PM MDT
Civil Twilight 7:01 AM MDT 6:36 PM MDT
Nautical Twilight 6:29 AM MDT 7:08 PM MDT
Astronomical Twilight 5:58 AM MDT 7:39 PM MDT
Moon 4:55 PM MDT (10/27) 5:27 AM MDT (10/27)
Length of Visible Light 11h 34m
Length of Day
10h 38m
Waxing Gibbous, 96% of the Moon is Illuminated
Oct 27
Waxing Gibbous
Oct 29
Full
Nov 6
Last Quarter
Nov 13
New
Nov 20
First Quarter

Hourly Weather History & Observations

Time (MDT) Temp. Windchill Dew Point Humidity Pressure Visibility Wind Dir Wind Speed Gust Speed Precip Events Conditions
12:16 AM 24.8 °F 20.5 °F 15.8 °F 69% 30.19 in 10.0 mi NNE 3.5 mph - N/A   Mostly Cloudy
12:56 AM 26.6 °F - 15.8 °F 64% 30.19 in 10.0 mi Calm Calm - N/A   Overcast
1:16 AM 26.6 °F 22.6 °F 17.6 °F 69% 30.20 in 10.0 mi SSE 3.5 mph - N/A   Overcast
1:36 AM 26.6 °F - 17.6 °F 69% 30.20 in 10.0 mi Calm Calm - N/A   Overcast
1:56 AM 26.6 °F 20.0 °F 17.6 °F 69% 30.19 in 10.0 mi WNW 5.8 mph - N/A   Overcast
2:36 AM 24.8 °F 19.1 °F 17.6 °F 74% 30.20 in 10.0 mi ESE 4.6 mph - N/A   Scattered Clouds
2:56 AM 26.6 °F - 17.6 °F 69% 30.20 in 10.0 mi Calm Calm - N/A   Overcast
3:16 AM 28.4 °F - 17.6 °F 64% 30.19 in 10.0 mi Calm Calm - N/A   Overcast
3:36 AM 28.4 °F 24.6 °F 17.6 °F 64% 30.18 in 10.0 mi West 3.5 mph - N/A   Overcast
3:56 AM 28.4 °F 24.6 °F 17.6 °F 64% 30.17 in 10.0 mi West 3.5 mph - N/A   Overcast
4:16 AM 28.4 °F - 17.6 °F 64% 30.18 in 10.0 mi Calm Calm - N/A   Overcast
4:36 AM 28.4 °F - 19.4 °F 69% 30.18 in 10.0 mi Calm Calm - N/A   Overcast
4:56 AM 28.4 °F - 19.4 °F 69% 30.18 in 10.0 mi Calm Calm - N/A   Overcast
5:16 AM 28.4 °F - 19.4 °F 69% 30.18 in 10.0 mi Calm Calm - N/A   Overcast
5:56 AM 28.4 °F - 19.4 °F 69% 30.19 in 10.0 mi Calm Calm - N/A   Overcast
6:16 AM 28.4 °F - 19.4 °F 69% 30.19 in 10.0 mi Calm Calm - N/A   Overcast
6:35 AM 28.4 °F - 19.4 °F 69% 30.19 in 10.0 mi Calm Calm - N/A   Overcast
6:56 AM 28.4 °F - 17.6 °F 64% 30.19 in 10.0 mi Calm Calm - N/A   Overcast
7:15 AM 30.2 °F - 19.4 °F 64% 30.19 in 10.0 mi Calm Calm - N/A   Overcast
7:35 AM 30.2 °F - 19.4 °F 64% 30.20 in 10.0 mi Calm Calm - N/A   Overcast
7:56 AM 30.2 °F 26.7 °F 14.0 °F 51% 30.20 in 10.0 mi WSW 3.5 mph - N/A   Overcast
8:16 AM 30.2 °F - 14.0 °F 51% 30.21 in 10.0 mi Calm Calm - N/A   Overcast
8:36 AM 30.2 °F - 14.0 °F 51% 30.22 in 10.0 mi Calm Calm - N/A   Overcast
8:56 AM 32.0 °F - 12.2 °F 44% 30.22 in 10.0 mi Calm Calm - N/A   Overcast
9:36 AM 33.8 °F 24.8 °F 10.4 °F 38% 30.21 in 10.0 mi West 12.7 mph - N/A   Overcast
9:56 AM 35.6 °F 29.2 °F 8.6 °F 33% 30.20 in 10.0 mi WSW 8.1 mph - N/A   Overcast
10:16 AM 33.8 °F 26.4 °F 8.6 °F 35% 30.20 in 10.0 mi SW 9.2 mph - N/A   Overcast
10:36 AM 33.8 °F 24.8 °F 8.6 °F 35% 30.21 in 10.0 mi WSW 12.7 mph 23.0 mph N/A   Mostly Cloudy
10:56 AM 33.8 °F 24.8 °F 10.4 °F 38% 30.21 in 10.0 mi WSW 12.7 mph 19.6 mph N/A   Scattered Clouds
11:16 AM 35.6 °F 26.6 °F 10.4 °F 35% 30.20 in 10.0 mi SW 13.8 mph - N/A   Scattered Clouds
11:36 AM 35.6 °F 25.9 °F 10.4 °F 35% 30.20 in 10.0 mi WSW 16.1 mph 24.2 mph N/A   Mostly Cloudy
11:56 AM 37.4 °F 28.5 °F 10.4 °F 33% 30.20 in 10.0 mi WSW 15.0 mph 23.0 mph N/A   Overcast
12:16 PM 37.4 °F 27.5 °F 12.2 °F 36% 30.20 in 10.0 mi WSW 18.4 mph 25.3 mph N/A   Overcast
12:36 PM 37.4 °F 29.3 °F 12.2 °F 36% 30.20 in 10.0 mi WSW 12.7 mph 20.7 mph N/A   Mostly Cloudy
12:56 PM 37.4 °F 27.8 °F 12.2 °F 36% 30.19 in 10.0 mi WSW 17.3 mph 23.0 mph N/A   Mostly Cloudy
1:15 PM 37.4 °F 29.3 °F 14.0 °F 38% 30.19 in 10.0 mi WSW 12.7 mph 18.4 mph N/A   Overcast
1:36 PM 37.4 °F 29.8 °F 14.0 °F 38% 30.18 in 10.0 mi WSW 11.5 mph 20.7 mph N/A   Overcast
1:56 PM 37.4 °F 32.1 °F 14.0 °F 38% 30.17 in 10.0 mi SSW 6.9 mph 23.0 mph N/A   Mostly Cloudy
2:16 PM 37.4 °F 30.8 °F 12.2 °F 36% 30.16 in 10.0 mi SSW 9.2 mph - N/A   Overcast
2:36 PM 39.2 °F 33.0 °F 12.2 °F 33% 30.16 in 10.0 mi SSW 9.2 mph - N/A   Overcast
2:56 PM 41.0 °F 37.1 °F 10.4 °F 29% 30.16 in 10.0 mi SSW 5.8 mph - N/A   Overcast
3:16 PM 41.0 °F 34.7 °F 10.4 °F 29% 30.14 in 10.0 mi SW 10.4 mph 16.1 mph N/A   Overcast
3:36 PM 42.8 °F 41.1 °F 10.4 °F 27% 30.14 in 10.0 mi WNW 3.5 mph - N/A   Overcast
3:56 PM 42.8 °F 38.0 °F 8.6 °F 25% 30.15 in 10.0 mi WSW 8.1 mph 24.2 mph N/A   Overcast
4:16 PM 42.8 °F 36.2 °F 6.8 °F 23% 30.15 in 10.0 mi West 12.7 mph 19.6 mph N/A   Overcast
4:36 PM 44.6 °F 38.4 °F 6.8 °F 21% 30.15 in 10.0 mi WNW 12.7 mph 27.6 mph N/A   Overcast
4:55 PM 42.8 °F 36.2 °F 8.6 °F 25% 30.16 in 10.0 mi West 12.7 mph 17.3 mph N/A   Mostly Cloudy
5:16 PM 42.8 °F 37.5 °F 5.0 °F 21% 30.16 in 10.0 mi WNW 9.2 mph 17.3 mph N/A   Scattered Clouds
5:36 PM 41.0 °F 35.2 °F 8.6 °F 26% 30.16 in 10.0 mi WNW 9.2 mph 16.1 mph N/A   Clear
5:56 PM 37.4 °F 29.8 °F 8.6 °F 30% 30.16 in 10.0 mi West 11.5 mph 16.1 mph N/A   Clear
6:16 PM 37.4 °F 30.8 °F 8.6 °F 30% 30.16 in 10.0 mi WNW 9.2 mph - N/A   Clear
6:36 PM 35.6 °F 29.2 °F 10.4 °F 35% 30.17 in 10.0 mi WNW 8.1 mph - N/A   Clear
6:56 PM 35.6 °F 31.7 °F 12.2 °F 38% 30.18 in 10.0 mi West 4.6 mph - N/A   Clear
7:16 PM 33.8 °F 30.8 °F 14.0 °F 44% 30.19 in 10.0 mi WSW 3.5 mph - N/A   Clear
7:35 PM 33.8 °F - 14.0 °F 44% 30.19 in 10.0 mi Calm Calm - N/A   Scattered Clouds
7:56 PM 33.8 °F - 14.0 °F 44% 30.20 in 10.0 mi Calm Calm - N/A   Overcast
8:16 PM 33.8 °F - 15.8 °F 48% 30.20 in 10.0 mi Calm Calm - N/A   Overcast
8:56 PM 33.8 °F 29.6 °F 14.0 °F 44% 30.20 in 10.0 mi WNW 4.6 mph - N/A   Overcast
9:36 PM 35.6 °F 32.8 °F 14.0 °F 41% 30.20 in 10.0 mi WNW 3.5 mph - N/A   Overcast
9:56 PM 35.6 °F 30.7 °F 14.0 °F 41% 30.20 in 10.0 mi West 5.8 mph - N/A   Overcast
10:16 PM 35.6 °F 32.8 °F 14.0 °F 41% 30.20 in 10.0 mi WNW 3.5 mph - N/A   Overcast
10:36 PM 35.6 °F 32.8 °F 14.0 °F 41% 30.21 in 10.0 mi West 3.5 mph - N/A   Overcast
10:56 PM 35.6 °F 32.8 °F 14.0 °F 41% 30.22 in 10.0 mi WNW 3.5 mph - N/A   Overcast
11:16 PM 33.8 °F 29.6 °F 15.8 °F 48% 30.22 in 10.0 mi West 4.6 mph - N/A   Overcast
11:36 PM 35.6 °F 31.7 °F 14.0 °F 41% 30.22 in 10.0 mi WNW 4.6 mph - N/A   Overcast
11:56 PM 35.6 °F - 15.8 °F 44% 30.22 in 10.0 mi Calm Calm - N/A   Overcast